SCP
0 0 0 0 0 0 0 0 0 0 0 0 0 0 0 0 0 0 0 0 0 0 0 0 0 0 0 0 0 0 0 0 0 0 0 0 0 0 0 0 0 0 0 0
0 0 0 0 0 0 0 0 0 0 0 0 0 0 0 0 0 0 0 0 0 0 0 0 0 0 0 0 0 0 0 0 0 0 0 0 0 0 0 0 0 0 0 0
0 0 0 0 0 0 0 0 0 0 0 0 0 0 0 0 0 0 0 0 0 0 0 0 0 0 0 0 0 0 0 0 0 0 0 0 0 0 0 0 0 0 0 0
0 0 0 0 0 0 0 0 0 0 0 0 0 0 0 0 0 0 0 0 0 0 0 0 0 0 0 0 0 0 0 0 0 0 0 0 0 0 0 0 0 0 0 0
0 0 0 0 0 0 0 0 0 0 0 0 0 0 0 0 0 0 0 0 0 0 0 0 0 0 0 0 0 0 0 0 0 0 0 0 0 0 0 0 0 0 0 0
0 0 0 0 0 0 0 0 0 0 0 0 0 0 0 0 0 0 0 0 0 0 0 0 0 0 0 0 0 0 0 0 0 0 0 0 0 0 0 0 0 0 0 0
0 0 0 0 0 0 0 0 0 0 0 0 0 0 0 0 0 0 0 0 0 0 0 0 0 0 0 0 0 0 0 0 0 0 0 0 0 0 0 0 0 0 0 0
0 0 0 0 0 0 0 0 0 0 0 0 0 0 0 0 0 0 0 0 0 0 0 0 0 0 0 0 0 0 0 0 0 0 0 0 0 0 0 0 0 0 0 0
0 0 0 0 0 0 0 0 0 0 0 0 0 0 0 0 0 0 0 0 0 0 0 0 0 0 0 0 0 0 0 0 0 0 0 0 0 0 0 0 0 0 0 0
0 0 0 0 0 0 0 0 0 0 0 0 0 0 0 0 0 0 0 0 0 0 0 0 0 0 0 0 0 0 0 0 0 0 0 0 0 0 0 0 0 0 0 0
0 0 0 0 0 0 0 0 0 0 0 0 0 0 0 0 0 0 0 0 0 0 0 0 0 0 0 0 0 0 0 0 0 0 0 0 0 0 0 0 0 0 0 0
0 0 0 0 0 0 0 0 0 0 0 0 0 0 0 0 0 0 0 0 0 0 0 0 0 0 0 0 0 0 0 0 0 0 0 0 0 0 0 0 0 0 0 0
0 0 0 0 0 0 0 0 0 0 0 0 0 0 0 0 0 0 0 0 0 0 0 0 0 0 0 0 0 0 0 0 0 0 0 0 0 0 0 0 0 0 0 0
0 0 0 0 0 0 0 0 0 0 0 0 0 0 0 0 0 0 0 0 0 0 0 0 0 0 0 0 0 0 0 0 0 0 0 0 0 0 0 0 0 0 0 0
0 0 0 0 0 0 0 0 0 0 0 0 0 0 0 0 0 0 0 0 0 0 0 0 0 0 0 0 0 0 0 0 0 0 0 0 0 0 0 0 0 0 0 0
0 0 0 0 0 0 0 0 0 0 0 0 0 0 0 0 0 0 0 0 0 0 0 0 0 0 0 0 0 0 0 0 0 0 0 0 0 0 0 0 0 0 0 0
0 0 0 0 0 0 0 0 0 0 0 0 0 0 0 0 0 0 0 0 0 0 0 0 0 0 0 0 0 0 0 0 0 0 0 0 0 0 0 0 0 0 0 0
0 0 0 0 0 0 0 0 0 0 0 0 0 0 0 0 0 0 0 0 0 0 0 0 0 0 0 0 0 0 0 0 0 0 0 0 0 0 0 0 0 0 0 0
0 0 0 0 0 0 0 0 0 0 0 0 0 0 0 0 0 0 0 0 0 0 0 0 0 0 0 0 0 0 0 0 0 0 0 0 0 0 0 0 0 0 0 0
0 0 0 0 0 0 0 0 0 0 0 0 0 0 0 0 0 0 0 0 0 0 0 0 0 0 0 0 0 0 0 0 0 0 0 0 0 0 0 0 0 0 0 0
0 0 0 0 0 0 0 0 0 0 0 0 0 0 0 0 0 0 0 0 0 0 0 0 0 0 0 0 0 0 0 0 0 0 0 0 0 0 0 0 0 0 0 0
0 0 0 0 0 0 0 0 0 0 0 0 0 0 0 0 0 0 0 0 0 0 0 0 0 0 0 0 0 0 0 0 0 0 0 0 0 0 0 0 0 0 0 0
0 0 0 0 0 0 0 0 0 0 0 0 0 0 0 0 0 0 0 0 0 0 0 0 0 0 0 0 0 0 0 0 0 0 0 0 0 0 0 0 0 0 0 0
0 0 0 0 0 0 0 0 0 0 0 0 0 0 0 0 0 0 0 0 0 0 0 0 0 0 0 0 0 0 0 0 0 0 0 0 0 0 0 0 0 0 0 0
0 0 0 0 0 0 0 0 0 0 0 0 0 0 0 0 0 0 0 0 0 0 0 0 0 0 0 0 0 0 0 0 0 0 0 0 0 0 0 0 0 0 0 0
0 0 0 0 0 0 0 0 0 0 0 0 0 0 0 0 0 0 0 0 0 0 0 0 0 0 0 0 0 0 0 0 0 0 0 0 0 0 0 0 0 0 0 0
0 0 0 0 0 0 0 0 0 0 0 0 0 0 0 0 0 0 0 0 0 0 0 0 0 0 0 0 0 0 0 0 0 0 0 0 0 0 0 0 0 0 0 0
Wind_Speed
6 5 5 8 9 11 12 12 11 10 11 12 9 9 8 6 6 7 9 10 12 12 10 9 9 8 8 7 6 5 5 4 3 3 3 3 3 4 4 5 5 6 6 7
5 6 6 6 8 10 11 11 12 10 12 9 6 4 5 6 8 9 10 11 11 11 11 11 10 9 8 7 6 5 5 4 3 3 3 4 4 5 5 6 6 6 7 7
5 4 2 8 10 10 8 8 10 14 17 8 5 7 8 9 10 11 10 10 11 11 11 10 10 9 9 7 5 5 4 3 3 3 4 5 5 5 6 6 6 7 7 7
4 3 8 10 6 9 9 9 10 9 7 6 8 5 3 5 8 9 9 9 9 9 8 8 7 7 6 6 5 4 3 3 3 4 5 5 5 6 6 6 6 7 8 8
5 5 7 8 5 6 8 9 7 9 7 3 3 3 2 2 4 7 7 8 8 8 8 8 8 7 7 5 4 3 3 4 4 4 5 5 6 7 6 6 7 7 7 8
5 5 8 9 5 4 5 7 6 6 7 6 7 3 5 2 4 6 7 7 8 8 8 8 6 6 6 4 3 4 4 5 5 5 5 6 7 7 6 6 7 7 8 8
6 6 8 9 3 5 6 9 4 6 7 9 8 6 3 6 5 7 8 8 9 9 7 6 6 6 5 3 4 5 4 4 5 5 6 7 7 6 7 7 7 7 9 8
6 6 11 6 7 9 9 3 3 5 6 7 5 5 6 7 8 8 8 8 8 7 6 4 5 5 3 4 4 4 4 5 6 6 6 5 6 7 7 7 7 8 8 9
11 10 6 7 8 6 5 5 5 5 5 7 7 6 6 6 7 7 7 7 6 6 5 3 3 3 3 4 3 3 4 5 6 6 6 6 6 7 7 6 6 7 7 9
4 6 4 4 3 3 5 5 5 5 7 8 7 8 7 8 7 6 6 5 5 5 4 2 2 2 4 4 3 4 5 6 6 6 6 6 5 5 6 6 7 7 8 9
5 4 1 3 5 5 4 4 5 5 5 7 9 8 7 7 7 6 5 4 4 4 4 3 2 3 4 4 3 4 6 6 6 6 6 6 6 6 7 7 8 10 8 7
8 8 8 7 6 7 7 6 7 7 5 5 7 8 7 7 6 5 5 4 4 3 3 3 3 4 4 4 4 5 5 6 5 5 5 6 7 8 12 14 19 21 20 19
5 4 4 3 4 6 6 6 6 6 8 7 6 7 7 6 5 5 5 4 3 3 3 3 4 5 5 5 4 5 6 6 5 5 6 6 6 8 10 12 16 19 20 22
5 6 4 4 4 5 6 6 7 7 6 7 6 7 7 6 5 5 4 3 3 3 3 4 4 6 6 5 5 6 7 8 8 6 6 6 7 7 8 10 12 9 12 18
4 4 6 5 6 6 7 8 9 7 7 6 6 7 7 6 5 4 3 2 1 2 4 4 5 7 6 5 6 7 6 5 6 6 6 7 7 7 8 10 11 11 9 10
5 5 7 8 8 8 7 8 8 7 7 6 6 6 5 5 4 2 1 1 2 4 5 5 7 7 6 6 6 6 6 12 11 7 6 6 7 8 9 9 10 10 10 9
9 7 7 7 8 7 6 6 8 7 6 7 6 5 5 4 2 1 2 3 4 5 5 6 8 8 7 6 6 6 6 8 14 10 7 8 8 9 9 10 10 10 10 12
6 7 8 10 9 8 8 7 7 7 6 6 6 5 4 3 2 3 3 4 4 6 7 7 7 7 7 7 6 6 6 6 6 7 8 8 9 9 9 10 11 12 11 11
7 8 8 9 9 9 8 7 7 6 6 5 5 3 2 2 2 3 3 4 5 7 7 6 12 9 7 9 10 6 6 8 8 8 8 13 12 8 9 10 11 11 11 11
9 10 11 10 9 8 8 7 7 6 4 4 3 2 1 2 3 4 4 5 6 6 7 9 9 8 8 9 12 6 7 8 9 9 8 9 9 9 8 9 10 11 10 10
11 11 11 10 9 8 7 7 6 5 3 3 2 1 3 4 4 4 4 6 7 7 7 12 8 6 7 9 13 7 7 8 8 8 9 9 9 10 10 10 10 11 11 10
9 10 10 9 9 7 5 4 4 3 2 1 1 2 3 5 5 5 6 7 7 11 8 6 6 11 14 17 8 7 7 8 8 8 8 8 9 10 10 10 10 11 10 9
8 9 8 7 7 5 4 3 2 1 0 1 3 4 4 5 4 5 7 5 5 12 10 6 12 20 23 13 6 6 7 8 9 9 9 9 10 10 10 11 10 10 9 10
8 7 7 5 5 4 3 1 1 1 2 3 4 5 5 5 5 5 6 11 15 17 9 12 21 23 22 8 6 7 8 9 9 9 10 10 9 9 10 10 10 10 10 11
7 6 5 5 4 2 1 1 2 2 3 3 5 5 5 4 6 6 6 8 14 16 9 13 20 22 13 7 8 9 8 9 10 11 9 9 9 10 10 10 10 11 11 11
5 4 3 2 1 1 0 1 2 2 3 4 5 4 5 5 6 7 6 8 10 15 11 8 9 13 9 9 9 10 10 11 12 10 10 11 11 11 11 11 12 11 11 11
4 3 2 2 2 1 1 1 2 3 4 5 7 6 6 6 6 7 9 9 9 9 9 9 8 9 9 10 10 10 10 10 10 10 10 10 10 11 11 12 11 11 11 11
Wind_Direction
212 211 178 201 210 201 203 211 216 234 236 247 246 236 229 215 195 185 186 186 184 180 173 166 161 160 158 158 159 156 157 170 199 216 225 238 252 261 268 272 272 274 280 282
221 222 212 227 227 212 215 221 229 246 258 245 242 220 214 206 192 193 194 189 181 172 166 166 163 159 156 159 164 159 167 193 213 225 240 250 257 264 271 274 274 275 276 278
217 223 206 243 221 208 207 208 201 226 244 242 225 217 213 206 197 199 193 181 174 170 168 165 161 157 161 163 158 160 179 207 226 237 250 257 262 269 270 271 272 276 275 273
172 158 224 239 224 206 214 231 217 225 242 226 222 219 218 201 193 194 182 170 164 156 150 148 145 145 145 146 154 168 193 225 240 246 254 263 267 268 268 266 268 270 273 272
155 201 258 284 246 193 200 247 227 222 233 199 127 77 332 264 190 183 170 156 149 145 140 138 141 142 139 147 157 180 218 239 247 245 253 263 265 266 266 268 270 269 268 271
152 181 223 238 230 184 147 257 243 199 194 168 138 163 247 201 140 130 127 128 129 126 124 130 139 138 140 157 176 218 235 244 249 246 248 255 260 265 266 266 268 272 273 271
175 208 248 247 217 124 177 239 216 179 176 168 183 198 174 131 120 125 123 124 126 125 128 138 140 135 146 173 218 235 244 252 257 254 253 256 262 264 270 273 275 275 277 276
172 202 245 222 151 184 211 183 160 166 169 170 164 123 126 130 129 128 122 121 124 124 126 133 138 140 166 219 239 249 255 260 263 263 264 267 266 271 273 275 279 280 282 282
190 210 227 185 196 203 160 164 175 168 166 148 143 149 143 138 135 132 129 129 126 130 131 136 149 157 197 237 249 256 261 264 266 270 269 268 269 275 280 277 277 283 283 286
211 244 229 209 200 175 172 174 171 162 155 153 154 152 145 143 139 135 131 132 129 132 142 169 193 201 219 245 254 258 266 271 272 274 277 275 271 269 273 276 278 282 284 287
212 234 165 227 209 188 159 139 133 134 151 156 146 148 149 148 146 142 134 132 137 148 169 205 227 244 250 255 260 266 269 271 274 271 272 278 273 265 273 261 267 283 282 279
206 201 183 209 198 171 160 166 158 143 136 140 147 146 141 142 141 138 137 136 143 160 190 225 244 260 267 265 256 259 268 271 270 271 273 273 280 286 280 281 290 293 293 293
187 160 159 157 151 159 162 159 150 146 145 139 134 134 134 133 134 133 136 146 169 195 218 238 255 266 270 268 260 256 261 269 270 270 273 276 278 286 295 296 291 292 294 296
147 123 129 163 163 150 138 129 118 110 115 124 124 122 122 121 129 140 157 178 194 216 239 251 262 268 270 269 265 264 265 273 278 268 269 273 275 278 283 292 299 294 290 294
177 158 156 144 127 122 122 121 118 117 115 109 114 122 127 132 145 160 172 182 206 246 259 264 268 273 276 271 268 268 269 269 268 266 266 269 274 278 281 284 287 292 292 291
147 117 123 132 139 136 131 133 135 137 132 125 125 128 132 135 143 157 186 200 228 258 266 269 269 273 278 277 274 272 268 279 288 281 272 275 277 280 283 284 285 287 289 291
142 151 153 152 151 146 144 141 141 139 134 132 136 132 126 125 135 203 250 254 251 259 265 265 269 276 279 274 268 268 266 276 287 289 276 277 278 279 280 282 283 285 286 288
166 164 160 156 150 139 129 125 127 130 132 134 128 126 134 155 204 248 270 285 288 285 275 264 267 276 273 271 268 265 266 267 269 272 276 276 280 279 281 284 287 288 289 292
122 126 125 126 129 128 125 123 122 120 120 123 128 142 166 209 239 262 276 281 282 285 282 278 296 296 282 279 287 270 267 273 277 276 276 285 290 283 283 286 287 288 289 291
105 108 108 106 106 111 114 115 114 111 115 121 125 138 239 267 268 272 273 269 259 256 267 283 288 279 275 277 289 274 269 274 279 282 283 282 284 286 287 288 289 290 290 290
108 108 107 106 101 99 107 113 114 116 115 120 144 220 262 277 278 274 274 283 279 271 276 290 290 280 282 285 291 277 273 276 280 284 286 287 287 288 287 286 287 290 291 292
105 107 106 106 105 99 93 96 104 110 107 103 265 268 278 285 286 279 258 257 273 290 294 278 276 287 296 299 288 279 277 279 282 282 281 282 284 286 287 287 287 289 290 290
104 105 105 105 107 104 89 82 86 96 130 280 282 281 277 274 274 280 290 276 276 294 299 281 292 300 304 303 288 283 282 282 282 282 282 281 281 282 284 285 285 287 287 286
101 99 98 96 95 92 83 51 20 339 289 284 278 276 276 284 281 261 263 291 302 304 298 295 303 305 308 301 288 284 283 282 281 280 279 279 279 280 281 282 283 283 283 283
101 99 98 97 92 89 65 354 341 321 306 293 287 282 273 262 272 286 285 287 298 305 298 300 304 306 305 289 285 283 281 279 281 283 280 283 283 282 281 281 282 283 284 283
97 96 93 92 100 90 2 337 313 305 305 302 297 290 287 283 281 286 290 290 290 300 301 295 292 296 290 285 284 283 282 286 288 285 280 281 281 281 282 282 281 282 282 283
83 79 73 58 37 22 348 313 299 298 298 298 299 297 295 296 295 296 296 297 296 295 294 292 290 288 287 285 284 283 282 282 281 281 281 281 281 282 283 282 283 283 283 283